STARLINK-32097, 60351

Orbit data source: Space-Track

STARLINK-32097, 60351 is a payload satellite owned by SpaceX/Seattle (US) in LEO that was launched on Fri, 02 Aug 2024 UTC via an FALCON 9 launch vehicle from the Air Force Eastern Test Range (AFETR). Payload-class satellites include a variety of spacecraft equipped with specific instruments for various scientific and technological missions. These include communications satellites like Starlink; space stations such as the ISS; scientific satellites like the Hubble; Earth observation satellites from companies like Planet Labs, Umbra, and HawkEye 360; GPS; miniature CubeSats for education and research; and military/defense satellites.

Loading next visibility...
Identifier
60351, 2024-136Y
Orbit
LEO
Country
Flag of USUS
Related business
Manufacturer
SpaceX/Seattle
Mission
Operational Commercial Communications
Bus & Motor
STARLINK V2M, Unknown motor
Mass
730 kg wet, ~700 kg dry
Launch date (UTC)
2024-08-02 (1 year ago)
Launch vehicle
FALCON 9
Launch site
Air Force Eastern Test Range (AFETR)
Object type
Payload
Rocket body
Debris
Shape & HBR
Box + 2 Pan, 17.7 m
Radar Cross Section
33.884 m², Large (>1 m²)

Expand to show TLE details & history
Last TLE update: 2 days ago

TLE from 2 days ago
0 STARLINK-32097
1 60351U 24136Y   25291.52570781 -.00002517  00000-0 -72984-4 0  9996
2 60351  53.1608  15.6405 0001225  92.1663 267.9478 15.30162615 67903
Epoch: 2025-10-18T12:37Z
TLE epoch observation values (Epoch: 2025-10-18T12:37:01.154Z)
Latitude
-0.00004°
Longitude
159.13019°
Altitude
476.257 km
Speed
7.629 km/s
True Right ascension
01h 02m 33s
True Declination
0° 00' 00"
Sunlit
Object was in full shadow at epoch
Visualization orbit readout
Latitude
Unknown
Longitude
Unknown
Altitude
Unknown
Speed
Unknown
Apparent Right ascension
Unknown
Apparent Declination
Unknown
Sunlit
N/A
Visualization observer readout
Local Sidereal Time
21:41:46
Azimuth
Unknown
Elevation
Unknown
Doppler factor
Unknown
Orbital elements
Apogee altitude
476.423 km
Perigee altitude
474.743 km
Semi-major axis
6,853.72 km
Eccentricity
0.00012
Inclination
53.1608°
RAAN
15.6405°
Arg. of periapsis
92.1663°
True anomaly
267.93377°
Mean anomaly
267.9478°
Eccentric anomaly
267.94079°
Mean motion
3.8252 °/min
Orbital period
94.11 mins
BSTAR
-0.000072984
Loading maneuver chart data...
Computing Atmospheric mass density...
Loading historical data...
Loading historical data...
Loading historical data...
Loading historical data...
Loading historical data...
Loading historical data...
Loading historical data...

Documentation

Showing up to 5 results
|